Location: Bauen
(46.9356°N, 8.5784°E)
Time: 18:41:03
(UTC+00:00)

Cosmos 1725 Rocket - Pass Details

Date: 18 February 2020
Orbit: 963 x 990 km, 82.9° (Epoch: 28 March)

Event Time Altitude Azimuth Distance (km) Brightness Sun altitude
Rises 05:43:57 0° 348° (NNW) 3,681 6.8 -7.9°
Reaches altitude 10° 05:46:30 10° 345° (NNW) 2,733 6.1 -7.4°
Maximum altitude 05:52:38 61° 267° (W) 1,108 4.1 -6.4°
Drops below altitude 10° 05:58:47 10° 189° (S) 2,732 6.4 -5.4°
Sets 06:01:19 0° 186° (S) 3,680 7.1 -5.0°
